YTMNJ's sites:

title views votes rating creation
?Erm, wtf? V8 925 7 (3.57)  2008-03-04
?Erm, wtf? V7 898 7 (2.71)  2008-02-01
?A red egg belts out a facemelter! 1,833 9 (3.11)  2008-01-31
?March of the Mingebags 940 7 (3.86)  2008-01-08
?Erm, wtf? V6 1,330 36 (3.33)  2008-01-03
?Erm, wtf? V5 471 7 (3.29)  2007-12-17
?The Master surprise attacks the Doctor and Martha ... 1,657 5 (2.00)  2007-12-13
?Erm, wtf? V4 1,391 46 (3.74)  2007-11-28
?Rose Tyler is returning to Doctor Who! 674 2 (3.00)  2007-11-27
?Shadow the Hedgehog has no class 698 2 (1.50)  2007-11-23
?Garry's Mod rave. With Still Alive Portal re... 2,778 10 (2.70)  2007-11-15
?OMG, secret nazi teapot! 959 13 (3.62)  2007-11-14
?This Summer, two disabled people will embark on a... 552 2 (3.00)  2007-11-08
?YTMND needs more cowbell. 955 14 (3.21)  2007-11-06
?Rose Tyler was just one in a long line... 775 11 (3.55)  2007-11-02
?Half-Life 2 Episode Three ending. Gordon wins. 1,181 7 (3.00)  2007-11-01
?The Doctor has one other weakness... 458 6 (2.33)  2007-10-31
?March of the Gnomes 1,848 36 (3.83)  2007-10-29
?What you see right before a llama dies... 581 8 (1.88)  2007-10-22
?Machine code boomkin. 578 5 (1.80)  2007-10-18
?Holy shit.... 330 5 (1.80)  2007-10-16
?Something terrible has happened to PHW... 544 4 (2.50)  2007-10-15
?(nsfw) Surprise buttsechs. Also glomph. 1,353 6 (3.50)  2007-10-14
?R.I.P Eli Vance. 1,408 6 (3.33)  2007-10-12
?Aphex Twin belts out a facemelter 880 7 (2.00)  2007-10-11
?The Doctor screams LOUD. 314 4 (2.50)  2007-10-11
?If Saturn had sentient life, it'd look like thi... 580 10 (2.90)  2007-10-08
?Samus has a new enemy... 1,469 8 (2.13)  2007-10-08
?Starcraft: Christmas 1,533 8 (3.75)  2007-10-08
?Go fat boi, go fat boi, go! 5,215 13 (3.77)  2007-09-28
?This is the leader of humanity... 555 5 (2.00)  2007-09-28
?Erm, wtf? V3 434 9 (3.11)  2007-09-28
?The Undead love to rock... 444 9 (1.67)  2007-09-25
?Yet Another Half-Life 2: Episode Two Spoiler 996 5 (2.60)  2007-09-24
?Domokun is... That Angry German Kid 1,002 8 (2.38)  2007-09-22
?Amy Rose will eat your soul! 1,561 3 (1.33)  2007-09-21
?Screaming Toothless Guy will eat your soul. 384 8 (1.00)  2007-09-20
?Hamtaro learns the terrible truth... 519 4 (3.50)  2007-09-10
?Doctor Who 300 688 9 (2.00)  2007-09-07
?What is love? Why, it's a Clockwork ... 1,783 13 (3.31)  2007-09-07
?The Flag of YTMND. For great patriotism! 570 7 (1.57)  2007-09-05
?Also... V2 334 4 (1.25)  2007-09-03
?Team Fortress 2 doesn't like smokers. 5,097 25 (3.48)  2007-09-02
?Black Hole Daisy returns. This time with 100% mor... 992 5 (2.00)  2007-08-08
?Breakdancing Cat dances to Blue Men: Rods and ... 4,755 10 (2.80)  2007-08-08
?The Doctor Is Hypnotised + Donna Noble Not Amu... 733 8 (1.88)  2007-08-07
?A new Halo enemy... 718 12 (1.25)  2007-08-05
?A message to Newdeedeedeer... 620 10 (1.40)  2007-08-04
?The next WoW expansion. 879 15 (1.73)  2007-08-03
?RE4. BOOMIES. 871 8 (2.88)  2007-08-03
?New York cabbies have strict guidelines. Number on... 259 3 (2.33)  2007-08-03
?Teabag: The only way Master Chief gets any boot... 423 4 (3.00)  2007-08-03
?(nsfw) So I hear you like to downvote. Well, if so... 572 8 (1.25)  2007-08-02
?Omg, secret nazi watermelon? 1,529 17 (3.53)  2007-08-02
?Excited emote rave. Dewd, you're in fo... 1,271 19 (2.53)  2007-08-01
?Heavy wants to know... 268 3 (1.33)  2007-07-31
?Davy L Jackson 428 3 (1.67)  2007-07-30
?Fatty Rave. SEX. Now I has yo attention, Warning:... 988 6 (3.17)  2007-07-28
?After Omega. Coming 30th December 2016. 794 3 (1.00)  2007-07-27
?RewardTMND: You win two beers! 648 8 (2.25)  2007-07-27
?Gman: He is coming. 1,057 7 (3.71)  2007-07-27
?New Half-Life 2: Episode Two enemy revealed. 912 6 (3.50)  2007-07-24
?Epic Furry Fashion Maneuver 1,445 10 (1.60)  2007-07-23
?The tragic truth about Leonidas... 540 4 (1.00)  2007-07-23
?Seagull Man is... WTF? 443 5 (1.40)  2007-07-23
?Seagull Man plays Tetris. 309 5 (2.60)  2007-07-23
?Epic giant duck roundhouse kicking Chuck Norris m... 1,180 9 (2.11)  2007-07-21
?Fan Fic Mad Max 4 914 3 (2.00)  2007-07-21
?R.I.P Fat Dog 1,143 9 (2.78)  2007-07-20
?(nsfw) The Lord of the Gays is... 696 7 (2.00)  2007-07-19
?What's up next for Japan... 977 6 (2.33)  2007-07-18
?Half-Life Two Episode Two: The Plot Thickens... 1,100 7 (1.86)  2007-07-17
?The Chuck Norris of the BBC... 993 10 (2.00)  2007-07-13
?Erm, wtf? V2 348 12 (2.08)  2007-07-13
?Erm, wtf? 1,245 9 (2.11)  2007-07-10
?Cat Skinners Must Die. 866 13 (2.85)  2007-07-07
?Tails + Tunak Tunak =... 1,255 6 (1.50)  2007-07-06
?Somehting wyrde... 538 11 (3.00)  2007-07-04
?(nsfw) Ravebow Horseman takes a leak 966 6 (1.17)  2007-06-26
?Scrubs KO 1,121 8 (1.75)  2007-06-23
?Unreleased Alien Game 502 2 (1.00)  2007-06-22
?Disco Ball is ridin' spinnaz 906 8 (2.88)  2007-06-21
?Is it me, or do Protoss look a bit like Draenei? 1,177 11 (1.91)  2007-06-19
?Cream and Tails. What a couple. 1,456 12 (1.50)  2007-06-18
?A message from the Doctor... 1,931 13 (3.54)  2007-06-15
?R.I.Ptmnd: Dumb rating 506 7 (1.14)  2007-06-12
?At least Tauren have chicken... 1,047 14 (1.07)  2007-06-11
?Push-Up Kittah pushes it to the limit 630 4 (1.75)  2007-06-11
?French fries have one weakness... 1,912 11 (2.00)  2007-06-08
?The Doctor has one weakness... 687 10 (1.30)  2007-06-07
?The Ring has yet another weakness... 668 3 (3.00)  2007-06-07
?Half-Life 2 Episode Two Major Spoiler. 941 9 (2.78)  2007-06-07
?Merry the Mage encounters some hawt bathing boo... 1,051 9 (1.67)  2007-06-07
?The real agony of undeath 2,298 10 (3.10)  2007-06-03
?Pokemon Mystery Dungeon 1337 Edition 1,083 7 (2.29)  2007-06-01
?Tails is a 1337 World of Warcraft player. Contains... 2,583 12 (2.33)  2007-06-01
?NEDM is a pokemon! Here's the proof. 2,347 9 (2.56)  2007-05-31
?Laughing owl. O rly? Ya rly! 1,772 6 (1.33)  2007-05-22
?Demonic Internet Baby 1,212 12 (2.42)  2007-05-21
?Stare for some time, and you'll see a gi... 390 5 (3.00)  2007-05-18
?RewardTMND: Owl Pie. 867 9 (2.56)  2007-05-15
?emot_piratesong. Contains Lazytown. 1,071 8 (1.88)  2007-05-14
?Murloc Rave V3: Third time lucky... 1,206 6 (3.00)  2007-05-11
?NEDM's Revenge: Top Gear Edition 1,565 11 (2.73)  2007-05-09
?Murloc Rave. This time, it's MORE INTE... 1,158 6 (1.33)  2007-05-09
?Oh my god, cannibal Tauren! 1,113 8 (2.13)  2007-05-08
?The Fat Dog Song 515 7 (1.57)  2007-05-08
?RewardTMND: Cookies 774 6 (3.00)  2007-05-07
?Batman in WoW 880 17 (1.53)  2007-05-06
?Little Britain Gmod 997 12 (3.00)  2007-05-05
?Alyx lives! Also, Gordon has a '69 Dod... 950 7 (2.71)  2007-05-04
?InteractivetMND V2: Move your eyes across the sc... 1,115 4 (1.00)  2007-05-04
?InteractivetMND: Move your eyes across the scree... 806 8 (2.75)  2007-05-04
???UnKnOwN?? of Facepunch is a Photokinetic Psy... 820 9 (1.11)  2007-05-02
?YTMND is loading, please stand by for music. 650 11 (3.27)  2007-05-01
?Omg, Secret Nazi Hindu Symbol! 1,914 14 (1.50)  2007-04-30
?How to make antigravity. Do not enter if you can&#... 562 13 (2.92)  2007-04-29
?Oh Sweet Lord, an animation error! 1,099 7 (2.00)  2007-04-29
?The Doctor is Hypnotized + Donna Noble Not Amu... 794 4 (2.25)  2007-04-29
?Zoidberg is an awesome god. 1,006 10 (2.70)  2007-04-27
?Dancing Ninja Gravity Cat Not Amused 1,015 8 (1.88)  2007-04-24
?Omg, Human-Dalek hybrid! 732 5 (2.40)  2007-04-22
?Doctor Who Gravity Cat in New New York 1,121 3 (1.33)  2007-04-15
?Black Hole Daisy 3,015 8 (2.38)  2007-04-12
?Gravity Cat gravity-crushes his opponent 564 7 (2.71)  2007-04-12
?Gravity Cat checks the pressure gauge 651 7 (2.86)  2007-04-06
?Mel Gibson is ridin' spinnaz 804 11 (1.73)  2007-04-04
?Gravity Cat gets some shades 859 6 (1.17)  2007-04-04
?AfroTMND: Afro Zoidberg! 578 8 (2.50)  2007-04-02
?AfroTMND: Afro Cat! 431 3 (2.67)  2007-04-01
?AfroTMND: Afro Sontaran! 680 3 (1.00)  2007-04-01
?Zomg, Cthulu descends upon us! 1,187 8 (2.38)  2007-03-29
?Gravity Cat finally achieves Enlightenment in Garry... 5,155 37 (3.97)  2007-03-20
?I'm Baaack! 1,583 6 (3.50)  2007-03-20
?This is the brother of Leeroy Jenkins... 617 5 (2.40)  2007-03-19
?Also... 737 14 (3.71)  2007-03-19
?Breen stares 1,151 5 (1.00)  2007-03-12
?Team Fortress 2 Benny Hill 3,654 17 (2.53)  2007-03-10
?Gordon Freeman has facial xpressions! 855 8 (1.63)  2007-03-09
?Ghost Rave (300% more nazi song than normal gh... 1,409 3 (2.67)  2007-03-08
?iCat headbanger 767 14 (3.14)  2007-03-05
?Hitler's Speech 855 2 (2.00)  2007-03-05
?Epic 4-D Rotation Maneuver 934 10 (2.90)  2007-03-04
?Cats love Vigilante 1,272 4 (3.00)  2007-02-27
?Lol, yoshi 2,566 7 (2.14)  2007-02-26
?Lol, enterprise (Much better version) 2,175 9 (3.89)  2007-02-16
?Scar-Life: The World Is Yours 736 6 (1.00)  2007-02-16
?(PTKFGS) Homo Soap 834 6 (3.17)  2007-02-16
?Shodan Approves! 989 3 (1.33)  2007-02-11
?Gman Moskau breakdance with his yappin' d... 1,129 14 (2.86)  2007-01-31
?Shoop Da Whoop Gmod 8,175 25 (3.48)  2007-01-31
?Sonic snuffs it 1,271 3 (3.00)  2007-01-30
?Shaun and his friends are vandals! 966 8 (3.13)  2007-01-29
?Screaming Camel is hungry! 901 19 (3.58)  2007-01-21
?Gordon is a Free Man 578 5 (1.40)  2007-01-20
?Gravity Cat vs NEDM MSP HD (it's an edit&... 1,504 21 (3.33)  2007-01-19
?The REAL what is Fresh Prince 1,205 12 (3.00)  2007-01-12
?Burger King pwnt Iron Chef 1,225 21 (2.24)  2007-01-08
?Headphone Cats like NEDM 945 11 (2.55)  2007-01-07
?Armless N64 kid 869 15 (1.07)  2007-01-07
?Laughing NEDM 596 13 (2.62)  2007-01-04
?Rockin' Muzak 553 5 (1.20)  2007-01-03
?Tails & Kleiner Merge 845 11 (2.45)  2006-12-30
?Gravity Cat vs NEDM (Paint Edition) 1,210 21 (3.24)  2006-12-30
?Fear the Pinkies 578 15 (2.87)  2006-12-30
?Doom 2 Source 665 4 (2.00)  2006-12-29
?Oh Noes! Satan! 649 6 (2.33)  2006-12-29
?You the man now Jack 592 6 (1.00)  2006-12-29